Weather History for Le Mars, IA

Change the Weather History Date:

Sunday, January 19, 2014

  Actual Average Record
Temperature  
Mean Temperature 38 °F -  
Max Temperature 59 °F 27 °F 59 °F (2014)
Min Temperature 17 °F 7 °F -35 °F (1970)
Degree Days  
Heating Degree Days 27    
Moisture  
Dew Point 24 °F    
Average Humidity 66    
Maximum Humidity 93    
Minimum Humidity 27    
Precipitation  
Precipitation 0.00 in - - ()
Sea Level Pressure  
Sea Level Pressure 29.74 in    
Wind  
Wind Speed 10 mph (WSW)    
Max Wind Speed 24 mph    
Max Gust Speed 33 mph    
Visibility 10 miles    
Events      
Averages and records for this station are not official NWS values.
T = Trace of Precipitation, MM = Missing Value Source: NWS Daily Summary

Daily Weather History Graph

Daily Weather History Graph

Search for Another Location

Airport:

Trip Planner

Search our weather history database for the weather conditions in past years. The results will help you decide how hot, cold, wet, or windy it might be!

Date:

Astronomy

Jan. 19, 2014 Rise Set
Actual Time 7:50 AM CST 5:21 PM CST
Civil Twilight 7:19 AM CST 5:52 PM CST
Nautical Twilight 6:44 AM CST 6:26 PM CST
Astronomical Twilight 6:10 AM CST 7:00 PM CST
Moon 9:06 PM CST (1/19) 9:15 AM CST (1/19)
Length of Visible Light 10h 32m
Length of Day
9h 30m
Waning Gibbous, 89% of the Moon is Illuminated
Jan 19
Waning Gibbous
Jan 23
Last Quarter
Jan 30
New
Feb 6
First Quarter
Feb 14
Full

Hourly Weather History & Observations

Time (CST) Temp. Windchill Dew Point Humidity Pressure Visibility Wind Dir Wind Speed Gust Speed Precip Events Conditions
12:15 AM 19.4 °F 7.9 °F 17.6 °F 93% 29.91 in 10.0 mi South 10.4 mph - N/A   Clear
12:35 AM 19.4 °F 7.2 °F 17.6 °F 93% 29.89 in 10.0 mi SSW 11.5 mph - N/A   Clear
12:55 AM 19.4 °F 9.5 °F 17.6 °F 93% 29.88 in 10.0 mi SSW 8.1 mph 15.0 mph N/A   Clear
1:15 AM 17.6 °F 10.7 °F 15.8 °F 93% 29.87 in 10.0 mi South 4.6 mph - N/A   Clear
1:35 AM 19.4 °F 10.4 °F 17.6 °F 93% 29.86 in 10.0 mi SSW 6.9 mph - N/A   Clear
1:55 AM 19.4 °F 10.4 °F 17.6 °F 93% 29.85 in 10.0 mi South 6.9 mph - N/A   Clear
2:15 AM 19.4 °F 10.4 °F 17.6 °F 93% 29.84 in 10.0 mi South 6.9 mph - N/A   Clear
2:35 AM 21.2 °F 11.7 °F 17.6 °F 86% 29.82 in 10.0 mi South 8.1 mph - N/A   Clear
2:55 AM 19.4 °F 10.4 °F 17.6 °F 93% 29.82 in 10.0 mi SSW 6.9 mph - N/A   Clear
3:15 AM 21.2 °F 12.6 °F 17.6 °F 86% 29.82 in 10.0 mi South 6.9 mph - N/A   Clear
3:35 AM 21.2 °F 11.7 °F 17.6 °F 86% 29.81 in 10.0 mi South 8.1 mph - N/A   Clear
3:55 AM 21.2 °F 11.7 °F 19.4 °F 93% 29.80 in 10.0 mi South 8.1 mph - N/A   Clear
4:15 AM 21.2 °F 11.7 °F 19.4 °F 93% 29.78 in 10.0 mi South 8.1 mph - N/A   Clear
4:35 AM 21.2 °F 10.9 °F 19.4 °F 93% 29.77 in 10.0 mi South 9.2 mph - N/A   Clear
4:55 AM 21.2 °F 9.5 °F 19.4 °F 93% 29.76 in 10.0 mi South 11.5 mph - N/A   Clear
5:15 AM 23.0 °F 12.4 °F 19.4 °F 86% 29.75 in 10.0 mi South 10.4 mph - N/A   Clear
5:35 AM 23.0 °F 11.1 °F 19.4 °F 86% 29.74 in 10.0 mi SSW 12.7 mph - N/A   Clear
5:55 AM 23.0 °F 11.1 °F 19.4 °F 86% 29.74 in 10.0 mi SSW 12.7 mph - N/A   Clear
6:15 AM 23.0 °F 11.7 °F 19.4 °F 86% 29.74 in 10.0 mi SSW 11.5 mph - N/A   Clear
6:35 AM 23.0 °F 13.1 °F 17.6 °F 80% 29.74 in 10.0 mi SSW 9.2 mph - N/A   Clear
6:55 AM 21.2 °F 11.7 °F 17.6 °F 86% 29.74 in 10.0 mi SSW 8.1 mph - N/A   Clear
7:15 AM 21.2 °F 11.7 °F 17.6 °F 86% 29.73 in 10.0 mi South 8.1 mph - N/A   Clear
7:35 AM 21.2 °F 12.6 °F 17.6 °F 86% 29.72 in 10.0 mi South 6.9 mph - N/A   Clear
7:55 AM 21.2 °F 13.6 °F 17.6 °F 86% 29.71 in 10.0 mi South 5.8 mph - N/A   Clear
8:15 AM 23.0 °F 14.7 °F 19.4 °F 86% 29.71 in 10.0 mi South 6.9 mph - N/A   Clear
8:35 AM 24.8 °F 16.1 °F 21.2 °F 86% 29.70 in 10.0 mi South 8.1 mph - N/A   Clear
8:55 AM 28.4 °F 19.7 °F 23.0 °F 80% 29.71 in 10.0 mi South 9.2 mph - N/A   Clear
9:15 AM 30.2 °F 23.4 °F 23.0 °F 75% 29.71 in 10.0 mi South 6.9 mph - N/A   Clear
9:35 AM 33.8 °F 27.0 °F 26.6 °F 75% 29.69 in 10.0 mi South 8.1 mph - N/A   Clear
9:55 AM 35.6 °F 30.7 °F 28.4 °F 75% 29.69 in 10.0 mi SSW 5.8 mph - N/A   Clear
10:15 AM 41.0 °F 36.4 °F 28.4 °F 61% 29.70 in 10.0 mi WSW 6.9 mph 13.8 mph N/A   Clear
10:35 AM 44.6 °F 39.7 °F 28.4 °F 53% 29.69 in 10.0 mi WSW 9.2 mph - N/A   Clear
10:55 AM 46.4 °F 41.9 °F 28.4 °F 50% 29.69 in 10.0 mi WSW 9.2 mph 16.1 mph N/A   Clear
11:15 AM 48.2 °F - 28.4 °F 46% 29.69 in 10.0 mi West 12.7 mph 20.7 mph N/A   Clear
11:35 AM 50.0 °F - 28.4 °F 43% 29.67 in 10.0 mi West 10.4 mph - N/A   Clear
11:55 AM 51.8 °F - 28.4 °F 41% 29.65 in 10.0 mi West 12.7 mph - N/A   Clear
12:15 PM 53.6 °F - 28.4 °F 38% 29.64 in 10.0 mi West 15.0 mph - N/A   Clear
12:35 PM 55.4 °F - 28.4 °F 36% 29.63 in 10.0 mi West 13.8 mph 26.5 mph N/A   Clear
12:55 PM 57.2 °F - 26.6 °F 31% 29.61 in 10.0 mi West 18.4 mph - N/A   Clear
1:15 PM 57.2 °F - 26.6 °F 31% 29.61 in 10.0 mi West 20.7 mph 32.2 mph N/A   Clear
1:35 PM 59.0 °F - 26.6 °F 29% 29.61 in 10.0 mi West 19.6 mph 28.8 mph N/A   Clear
1:55 PM 59.0 °F - 24.8 °F 27% 29.61 in 10.0 mi WNW 19.6 mph 28.8 mph N/A   Clear
2:15 PM 59.0 °F - 24.8 °F 27% 29.62 in 10.0 mi NW 18.4 mph 33.4 mph N/A   Clear
2:35 PM 59.0 °F - 24.8 °F 27% 29.63 in 10.0 mi NW 16.1 mph 32.2 mph N/A   Clear
2:55 PM 59.0 °F - 26.6 °F 29% 29.63 in 10.0 mi WNW 24.2 mph - N/A   Clear
3:15 PM 57.2 °F - 26.6 °F 31% 29.64 in 10.0 mi NW 18.4 mph 32.2 mph N/A   Clear
3:35 PM 55.4 °F - 26.6 °F 33% 29.65 in 10.0 mi NW 17.3 mph 31.1 mph N/A   Clear
3:55 PM 53.6 °F - 26.6 °F 35% 29.66 in 10.0 mi NW 21.9 mph 31.1 mph N/A   Clear
4:15 PM 53.6 °F - 28.4 °F 38% 29.67 in 10.0 mi NW 20.7 mph 28.8 mph N/A   Clear
4:35 PM 50.0 °F - 28.4 °F 43% 29.69 in 10.0 mi NW 16.1 mph 29.9 mph N/A   Clear
4:55 PM 50.0 °F - 28.4 °F 43% 29.70 in 10.0 mi NW 13.8 mph 21.9 mph N/A   Clear
5:15 PM 46.4 °F 40.7 °F 28.4 °F 50% 29.71 in 10.0 mi WNW 12.7 mph 19.6 mph N/A   Clear
5:35 PM 46.4 °F 41.1 °F 28.4 °F 50% 29.72 in 10.0 mi NW 11.5 mph 21.9 mph N/A   Clear
5:55 PM 44.6 °F 38.4 °F 28.4 °F 53% 29.73 in 10.0 mi NW 12.7 mph 19.6 mph N/A   Clear
6:15 PM 44.6 °F 37.8 °F 28.4 °F 53% 29.73 in 10.0 mi NW 15.0 mph 21.9 mph N/A   Clear
6:55 PM 42.8 °F 36.6 °F 28.4 °F 57% 29.75 in 10.0 mi WNW 11.5 mph 17.3 mph N/A   Clear
7:15 PM 42.8 °F 36.6 °F 28.4 °F 57% 29.76 in 10.0 mi NW 11.5 mph 19.6 mph N/A   Clear
7:35 PM 42.8 °F 36.6 °F 28.4 °F 57% 29.76 in 10.0 mi NW 11.5 mph - N/A   Clear
7:55 PM 41.0 °F 35.2 °F 28.4 °F 61% 29.77 in 10.0 mi NW 9.2 mph - N/A   Clear
8:15 PM 41.0 °F 37.1 °F 28.4 °F 61% 29.77 in 10.0 mi NW 5.8 mph 11.5 mph N/A   Clear
8:35 PM 39.2 °F - 28.4 °F 65% 29.77 in 10.0 mi Calm Calm - N/A   Clear
8:55 PM 39.2 °F - 28.4 °F 65% 29.78 in 10.0 mi Calm Calm - N/A   Clear
9:15 PM 37.4 °F - 28.4 °F 70% 29.79 in 10.0 mi Calm Calm - N/A   Clear
9:35 PM 32.0 °F 27.5 °F 24.8 °F 75% 29.80 in 10.0 mi West 4.6 mph - N/A   Clear
9:55 PM 35.6 °F 29.9 °F 26.6 °F 70% 29.80 in 10.0 mi WNW 6.9 mph - N/A   Clear
10:15 PM 35.6 °F 29.9 °F 26.6 °F 70% 29.80 in 10.0 mi WNW 6.9 mph - N/A   Clear
10:35 PM 35.6 °F 30.7 °F 26.6 °F 70% 29.80 in 10.0 mi NW 5.8 mph - N/A   Clear
10:55 PM 33.8 °F 29.6 °F 26.6 °F 75% 29.81 in 10.0 mi West 4.6 mph - N/A   Clear
11:15 PM 32.0 °F 27.5 °F 26.6 °F 80% 29.82 in 10.0 mi WNW 4.6 mph - N/A   Clear
11:35 PM 32.0 °F 28.7 °F 26.6 °F 80% 29.83 in 10.0 mi West 3.5 mph - N/A   Clear
11:55 PM 28.4 °F 23.3 °F 24.8 °F 86% 29.82 in 10.0 mi SSW 4.6 mph - N/A   Clear